Location: Conflandey
(47.7287°N, 6.0456°E)
Time: 03:41:35
(UTC+00:00)

H-2A R/B - Pass Details

Date: 24 October 2021
Orbit: 527 x 651 km, 98.3° (Epoch: 28 November)

Event Time Altitude Azimuth Distance (km) Brightness Sun altitude
Rises 18:18:01 0° 170° (S) 2,886 5.9 -18.6°
Reaches altitude 10° 18:20:15 10° 172° (S) 1,967 5.0 -19.0°
Maximum altitude 18:24:30 71° 256° (WSW) 636 2.7 -19.7°
Drops below altitude 10° 18:28:38 10° 342° (NNW) 1,907 5.3 -20.4°
Sets 18:30:46 0° 344° (NNW) 2,791 6.2 -20.7°
